RH
18 20 22 21 21 22 23 23 22 21 22 22 19 17 15 14 14 13 12 12 12 12 13 13 14 13 14 17 21 17 15 16 17 19 20 22 23 27 23 23 23 22 21 21 22 22 21
21 23 23 23 24 25 26 25 24 22 21 21 21 19 16 14 14 13 11 12 12 12 12 13 15 14 15 19 20 17 15 15 17 19 21 22 26 28 28 25 23 23 23 25 26 24 23
23 24 23 23 23 24 24 24 24 22 21 20 19 20 17 15 15 12 12 13 12 11 12 13 15 14 16 20 17 18 14 14 16 18 18 21 24 30 27 29 27 27 29 28 29 27 27
26 25 23 22 22 22 22 23 24 24 23 21 19 18 19 18 17 12 14 13 12 12 12 13 15 17 16 17 18 18 14 15 17 17 18 19 23 27 29 30 34 32 30 30 27 28 29
27 25 24 22 22 22 21 22 23 23 23 22 20 18 20 22 18 13 15 13 14 13 12 14 15 19 18 18 19 17 16 14 16 18 20 20 22 28 28 29 34 34 32 30 32 32 32
26 25 24 23 21 21 21 21 23 23 22 21 20 19 20 24 20 16 16 15 16 15 14 19 17 20 20 17 15 16 17 17 18 20 20 19 23 29 28 30 39 31 32 31 33 31 33
27 28 27 24 22 21 21 22 24 25 23 22 20 19 20 24 22 18 17 17 16 19 16 18 17 17 16 16 18 19 18 20 20 22 20 20 29 29 24 25 26 29 32 33 29 26 26
29 29 29 26 25 21 20 21 23 25 25 23 22 20 21 24 24 19 19 19 21 21 22 21 19 20 18 19 22 21 19 20 21 23 23 24 30 27 21 22 26 29 31 31 26 25 29
30 29 27 23 23 23 23 24 25 26 26 24 24 22 22 25 26 23 22 25 25 28 29 26 21 21 20 22 22 21 20 22 23 25 26 26 26 24 22 23 26 25 28 33 33 30 33
27 26 25 20 21 22 26 28 28 28 27 26 25 24 24 26 28 24 24 26 28 31 36 25 26 26 24 23 28 23 22 22 26 26 25 28 28 25 24 26 26 26 30 31 32 42 47
25 25 24 20 18 23 31 33 33 31 29 27 27 24 25 29 26 27 28 28 30 38 33 25 27 24 26 25 24 29 24 25 26 26 28 25 27 30 27 28 27 23 27 31 35 42 46
28 28 26 24 23 31 34 37 36 34 31 30 28 26 28 29 30 28 27 30 39 43 32 30 28 28 28 28 27 25 28 28 29 30 31 32 31 31 29 30 29 29 30 34 41 48 60
39 44 46 43 42 37 36 40 38 35 34 32 30 28 31 31 29 25 26 36 43 43 28 34 31 29 29 29 29 29 27 28 33 34 33 32 37 37 32 32 35 32 36 42 42 62 56
52 58 65 63 52 41 39 42 40 39 35 33 31 30 33 33 30 27 31 38 37 37 37 35 32 31 34 31 31 29 29 34 37 38 44 48 38 38 40 38 40 39 41 46 37 55 52
60 68 75 74 62 49 46 47 45 41 36 34 32 33 36 36 32 30 36 47 43 38 39 36 33 32 34 36 33 31 30 35 38 38 41 46 42 38 37 42 43 49 54 47 51 52 65
71 74 78 78 74 59 53 50 46 40 36 35 33 36 42 36 36 36 41 42 40 39 38 37 35 34 35 35 34 34 31 36 41 41 42 44 50 38 43 43 46 51 54 59 64 67 65
76 79 82 80 77 65 55 51 46 41 37 35 35 40 46 41 40 44 49 46 44 43 42 43 44 42 40 41 39 38 34 40 41 44 41 43 46 41 41 45 51 57 61 61 62 64 70
84 85 87 85 84 70 56 52 47 42 40 37 40 45 46 41 47 51 51 50 46 46 47 46 45 46 47 46 45 43 41 44 44 46 45 44 48 54 43 42 46 51 54 59 70 61 70
91 90 92 91 91 78 63 53 48 45 42 39 44 48 52 48 55 58 55 51 48 50 51 51 52 53 53 53 52 49 48 48 48 48 49 51 51 61 46 50 52 56 56 59 64 67 65
94 94 93 94 92 82 70 61 49 44 41 41 46 51 56 57 53 51 53 53 53 55 53 53 52 53 55 54 52 52 53 54 53 52 51 54 56 56 53 47 55 59 58 61 69 81 70
96 95 94 95 95 85 73 68 54 46 43 43 51 58 57 59 61 58 54 52 54 56 59 58 60 61 60 62 59 60 62 61 58 58 57 58 62 60 60 60 63 64 60 61 70 70 78
98 98 97 97 98 88 76 70 61 51 45 48 54 53 58 56 55 52 53 56 60 62 62 62 64 62 61 62 61 62 62 59 58 52 55 58 64 62 66 58 57 55 50 49 55 59 69
99 99 99 99 98 89 78 72 62 54 48 53 54 49 46 50 55 57 58 63 66 63 61 64 62 59 56 51 49 48 48 49 51 55 56 62 63 65 62 60 60 51 50 50 53 58 59
98 97 98 98 97 90 82 75 64 57 53 53 52 53 54 54 59 54 53 55 58 61 61 57 57 56 53 53 48 43 41 40 40 40 44 55 60 61 64 58 64 38 44 51 55 60 59
96 96 99 98 97 91 85 77 65 61 57 54 52 51 55 57 58 56 54 56 56 54 55 56 56 57 56 51 51 46 43 40 38 39 41 45 59 65 70 71 52 43 54 60 66 74 69
88 89 95 98 96 90 88 80 68 65 60 55 55 57 57 60 61 61 61 60 60 56 55 55 60 60 56 56 52 52 46 37 37 44 49 47 56 67 68 78 66 55 58 60 66 79 78
89 94 94 98 94 94 91 85 74 70 63 58 57 60 60 61 61 64 63 60 61 61 61 58 58 54 54 54 53 51 49 40 45 45 61 66 69 70 72 75 64 49 52 49 59 74 79
94 97 91 96 96 95 95 88 79 72 68 58 65 67 67 68 62 64 65 64 62 61 62 56 53 56 56 56 54 54 56 56 59 58 58 61 74 76 78 80 76 66 67 74 78 77 79
98 98 93 89 99 97 97 89 75 70 67 66 71 73 71 70 65 59 55 50 54 54 55 55 50 55 53 54 60 58 58 53 51 56 42 50 55 60 72 73 69 77 75 73 75 76 76